Simultaneous Nadir Overpasses (SNOs) Predictions

Prediction of SNOs between METOP-B and TERRA Satellite Orbit:

Table of predicted SNOs for the next 14.0 days since TLE Epoch: 2/8/2014
Index Date (METOP-B) Time (METOP-B) Lat,Lon (METOP-B) SZA (METOP-B ) Date (TERRA) Time (TERRA) Lat,Lon (TERRA) SZA (TERRA ) Distance(km) Time Diff (sec)
1 02/08/2014 03:47:26 81.29, 169.79 98.57 02/08/2014 03:47:40 81.29, 169.78 98.57 0.44 14
2 02/08/2014 04:38:04 -81.30, -22.12 81.36 02/08/2014 04:37:06 -81.30, -22.31 81.41 3.18 58
3 02/10/2014 23:21:45 81.30,-123.49 97.70 02/10/2014 23:21:56 81.30,-123.57 97.70 1.39 11
4 02/11/2014 00:12:25 -81.29, 43.82 82.32 02/11/2014 00:11:23 -81.29, 43.99 82.33 2.89 62
5 02/13/2014 18:56:06 81.29, -57.26 96.75 02/13/2014 18:56:13 81.30, -57.15 96.77 1.90 7
6 02/1
